Location: Isle of Man Observatory
(54.1776°N, 4.6264°W)
Time: 10:26:59
(UTC+02:00)

N. Korean satellite - Visible Passes

Search period start: 15 October 2019 00:00
Search period end: 25 October 2019 00:00
Orbit: 455 x 508 km, 97.2° (Epoch: 14 October)

Date Brightness Start Highest point End Pass type
(mag) Time Alt. Az. Time Alt. Az. Time Alt. Az.
15 Oct 10.0 07:21:05 10° NE 07:23:28 17° E 07:25:51 10° SE visible
17 Oct 8.0 08:03:06 10° NNE 08:06:33 44° E 08:10:01 10° S visible
17 Oct 9.9 20:19:36 10° SW 20:21:58 17° W 20:24:21 10° NW visible
18 Oct 9.3 07:38:07 10° NE 07:41:08 25° E 07:44:09 10° SSE visible
18 Oct 8.8 19:53:23 10° SSW 19:56:28 30° W 19:59:36 10° NNW visible
19 Oct 10.1 07:13:33 10° NE 07:15:36 14° E 07:17:41 10° SE visible
20 Oct 10.3 20:38:18 10° WSW 20:39:38 12° W 20:40:58 10° WNW visible
21 Oct 8.4 07:55:20 10° NNE 07:58:43 37° E 08:02:08 10° SSE visible
21 Oct 9.6 20:11:24 10° SW 20:14:04 21° W 20:16:46 10° NW visible
22 Oct 9.5 07:30:25 10° NE 07:33:15 21° E 07:36:07 10° SE visible
22 Oct 8.3 19:45:22 10° SSW 19:48:35 37° W 19:51:51 10° NNW visible
23 Oct 10.3 07:06:05 10° ENE 07:07:42 12° E 07:09:19 10° ESE visible
24 Oct 7.4 08:12:39 10° NNE 08:16:15 57° E 08:19:53 10° S visible
24 Oct 10.1 20:29:45 10° WSW 20:31:41 14° W 20:33:38 10° NW visible
